Location: Byszew
(52.1813°N, 19.2693°E)
Time: 22:32:32
(UTC+00:00)

Cosmos 2322 Rocket - Pass Details

Date: 30 June 2021
Orbit: 833 x 850 km, 71.0° (Epoch: 26 July)

Event Time Altitude Azimuth Distance (km) Brightness Sun altitude
Rises 20:01:59 0° 275° (W) 3,419 6.1 -6.6°
Reaches altitude 10° 20:05:26 10° 296° (WNW) 2,485 5.8 -6.9°
Maximum altitude 20:08:58 16° 335° (NNW) 2,061 5.6 -7.2°
Drops below altitude 10° 20:12:31 10° 14° (NNE) 2,485 5.3 -7.5°
Sets 20:15:58 0° 35° (NE) 3,420 5.7 -7.8°
